Погода в Опенках

Россия / Ростовская область     46°38′18″N   41°52′47″E
темп.,
°C
ветер,
м/с
пор.,
м/с
влажн.,
%
обл.,
%
осадки,
мм/ч
давл.,
гПа
погр.,
м
14 августа, вс
вс1400:00+27в47285 0.0 1010123
03:00+24всв511330 0.0 1010194
06:00+24всв512340 0.0 1010247
09:00+32в812190 0.0 10091305
12:00+37в911140 0.0 10073006
15:00+39вюв81014100 0.0 10053470
18:00+36вюв5915100 0.0 1005515
21:00+33вюв9151886 0.0 1006810
15 августа, пн
пн1500:00+30вюв715243 0.0 1007570
03:00+26в411302 0.0 1007222
06:00+26всв714325 0.0 1008411
09:00+33вюв9132115 0.0 10071218
12:00+38вюв1014150 0.0 10062837
15:00+40вюв10121351 0.0 10053583
18:00+38вюв10121477 0.0 10053007
21:00+34вюв10161838 0.0 1007809
16 августа, вт
вт1600:00+31вюв817225 0.0 1008614
03:00+28в716265 0.0 1008544
06:00+27в6152897 0.0 1010585
09:00+33юв811225 0.0 10101425
12:00+36юв7111912 0.1 10092460
15:00+36ююв6102176 0.3 10081498
18:00+36зюз442351 0.4 1007552
21:00+28зсз46420 1.1 100997
17 августа, ср
ср1700:00+25ссз46542 0.0 100984
03:00+24ссв335248 0.0 100928
06:00+24ссз22502 0.0 100944
09:00+31ссз343125 0.0 1009688
12:00+36ссз44243 0.0 10081745
15:00+38с44200 0.0 10072380
18:00+37с33200 0.0 10062432
21:00+31ссз33280 0.0 100627
18 августа, чт
чт1800:00+28ссз51240100 0.0 1006232
03:00+26ссз41048100 0.5 1006174
06:00+25зсз4749100 0.2 1006120
09:00+32сз3532100 0.4 1007523
12:00+37ссз55244 0.1 10061913
15:00+38с442162 0.1 10062743
18:00+35ссв3426100 0.1 1005655
21:00+27св4855100 0.7 1007168